Regional Weather Roundup
Issued by NWS Goodland, KS

Home | Current Version | Previous Version | Graphics & Text | Print | Product List | Glossary On
Versions: 1 2 3 4 5 6 7 8 9 10 11 12 13 14 15 16 17 18 19 20 21 22 23 24 25 26 27 28 29 30 31 32 33 34 35 36 37 38 39 40 41 42 43 44 45 46 47 48 49 50
000
ASUS43 KGLD 010808
RWRGLD

GOODLAND FORECAST AREA HOURLY WEATHER ROUNDUP
NATIONAL WEATHER SERVICE GOODLAND KS
200 AM MDT SAT OCT 01 2016

...OFFICIAL OBSERVATIONS...

CITY           SKY/WX    TMP DP  RH WIND       PRES   REMARKS
GOODLAND KS    PTCLDY    55  45  68 S12       30.13S
HILL CITY KS   CLOUDY    49  46  90 CALM      30.15S
IMPERIAL NEB   CLOUDY    55  45  68 SE6       30.14F
MCCOOK NEB     CLOUDY    52  45  77 CALM      30.14S
AKRON CO       CLEAR     52  44  74 S8        30.15S
BURLINGTON CO  CLEAR     51  44  77 S9        30.15S
LIMON CO       CLOUDY    42  37  82 N5        30.19S
$$

...UNOFFICIAL OBSERVATIONS...

CITY           SKY/WX    TMP DP  RH WIND       PRES   REMARKS
COLBY KS       CLEAR     52  45  76 SE6       30.14F
LENORA KS        N/A     51  32  48 MISG        N/A
NORTON KS      CLEAR     54  43  66 SE5       30.13F
SHARON SPRINGS   N/A     52  46  80 SE5         N/A
KIT CARSON CO    N/A     50  43  78 CALM        N/A
$$




USA.gov is the U.S. government's official web portal to all federal, state and local government web resources and services.